TimeEDT,TemperatureF,Dew PointF,Humidity,Sea Level PressureIn,VisibilityMPH,Wind Direction,Wind SpeedMPH,Gust SpeedMPH,PrecipitationIn,Events,Conditions,WindDirDegrees,DateUTC
12:45 AM,64.4,59.0,83,30.05,10.0,East,5.8,-,N/A,,Overcast,80,2013-08-30 04:45:00
12:53 AM,64.9,59.0,81,30.05,10.0,East,4.6,-,N/A,,Overcast,90,2013-08-30 04:53:00
1:53 AM,64.9,59.0,81,30.05,10.0,Calm,Calm,-,N/A,,Overcast,0,2013-08-30 05:53:00
2:53 AM,64.9,59.0,81,30.03,10.0,Calm,Calm,-,N/A,,Overcast,0,2013-08-30 06:53:00
3:31 AM,62.6,59.0,88,30.02,10.0,Calm,Calm,-,N/A,,Mostly Cloudy,0,2013-08-30 07:31:00
3:53 AM,62.1,59.0,90,30.02,10.0,Calm,Calm,-,N/A,,Overcast,0,2013-08-30 07:53:00
4:40 AM,60.8,57.2,88,30.01,10.0,Calm,Calm,-,N/A,,Overcast,0,2013-08-30 08:40:00
4:53 AM,62.1,59.0,90,30.02,10.0,Calm,Calm,-,N/A,,Overcast,0,2013-08-30 08:53:00
5:40 AM,62.6,60.8,94,30.03,10.0,Calm,Calm,-,N/A,,Overcast,0,2013-08-30 09:40:00
5:53 AM,63.0,60.1,90,30.02,10.0,Calm,Calm,-,N/A,,Overcast,0,2013-08-30 09:53:00
6:36 AM,62.6,60.8,94,30.03,10.0,Calm,Calm,-,N/A,,Overcast,0,2013-08-30 10:36:00
6:53 AM,64.0,60.1,87,30.03,10.0,Calm,Calm,-,N/A,,Overcast,0,2013-08-30 10:53:00
7:53 AM,64.9,61.0,87,30.04,10.0,Calm,Calm,-,N/A,,Overcast,0,2013-08-30 11:53:00
8:53 AM,68.0,61.0,78,30.03,10.0,SW,6.9,-,N/A,,Overcast,220,2013-08-30 12:53:00
9:04 AM,68.0,62.6,83,30.02,10.0,Variable,4.6,-,N/A,,Overcast,0,2013-08-30 13:04:00
9:53 AM,69.1,63.0,81,30.01,10.0,SW,6.9,-,N/A,,Overcast,220,2013-08-30 13:53:00
10:53 AM,70.0,64.0,81,30.01,10.0,WSW,8.1,-,N/A,,Overcast,240,2013-08-30 14:53:00
11:23 AM,71.6,64.4,78,30.01,10.0,SW,8.1,-,N/A,,Overcast,220,2013-08-30 15:23:00
11:53 AM,72.0,64.9,78,30.00,10.0,SW,6.9,-,N/A,,Overcast,220,2013-08-30 15:53:00
12:53 PM,75.0,66.0,73,29.97,10.0,SW,11.5,17.3,N/A,,Scattered Clouds,220,2013-08-30 16:53:00
1:28 PM,73.4,66.2,78,29.96,10.0,SW,12.7,19.6,N/A,,Mostly Cloudy,220,2013-08-30 17:28:00
1:45 PM,75.2,66.2,73,29.96,10.0,SW,11.5,20.7,N/A,,Scattered Clouds,230,2013-08-30 17:45:00
1:53 PM,77.0,66.9,71,29.96,10.0,SW,13.8,19.6,N/A,,Partly Cloudy,230,2013-08-30 17:53:00
2:53 PM,75.9,66.9,74,29.94,10.0,SW,10.4,20.7,N/A,,Scattered Clouds,220,2013-08-30 18:53:00
3:03 PM,75.2,66.2,73,29.94,10.0,SSW,12.7,20.7,N/A,,Mostly Cloudy,210,2013-08-30 19:03:00
3:26 PM,77.0,66.2,69,29.93,10.0,SW,9.2,20.7,N/A,,Scattered Clouds,220,2013-08-30 19:26:00
3:53 PM,75.9,66.9,74,29.93,10.0,SW,9.2,20.7,N/A,,Partly Cloudy,230,2013-08-30 19:53:00
4:53 PM,75.0,66.0,73,29.92,10.0,SW,13.8,-,N/A,,Clear,230,2013-08-30 20:53:00
5:53 PM,73.0,66.9,81,29.92,10.0,SW,11.5,-,N/A,,Partly Cloudy,220,2013-08-30 21:53:00
6:53 PM,72.0,66.9,84,29.90,9.0,SW,6.9,-,N/A,,Clear,220,2013-08-30 22:53:00
7:23 PM,71.6,68.0,88,29.90,8.0,SW,5.8,-,N/A,,Partly Cloudy,220,2013-08-30 23:23:00
7:53 PM,71.1,68.0,90,29.90,9.0,SW,6.9,-,N/A,,Partly Cloudy,230,2013-08-30 23:53:00
8:53 PM,71.1,68.0,90,29.90,9.0,SW,8.1,-,N/A,,Clear,230,2013-08-31 00:53:00
9:53 PM,71.1,68.0,90,29.90,8.0,SW,6.9,-,N/A,,Clear,230,2013-08-31 01:53:00
10:53 PM,71.1,69.1,93,29.91,7.0,SW,8.1,-,N/A,,Clear,220,2013-08-31 02:53:00
11:48 PM,71.6,69.8,94,29.90,8.0,SW,9.2,-,N/A,,Partly Cloudy,230,2013-08-31 03:48:00
11:53 PM,71.1,69.1,93,29.90,8.0,SW,11.5,18.4,N/A,,Partly Cloudy,220,2013-08-31 03:53:00